Location: Nairn
(57.5833°N, 3.8667°W)
Time: 03:01:04
(UTC+00:00)

Vanguard 1 Rocket - Pass Details

Date: 27 November 2020
Orbit: 655 x 4221 km, 34.3° (Epoch: 20 January)

Event Time Altitude Azimuth Distance (km) Brightness Sun altitude
Exits shadow 05:29:08 15° 241° (WSW) 6,182 11.1 -22.3°
Maximum altitude 05:41:16 27° 200° (SSW) 4,196 10.6 -20.7°
Drops below altitude 10° 05:51:09 10° 148° (SSE) 4,315 11.4 -19.4°
Sets 05:54:30 0° 136° (SE) 4,872 12.0 -18.9°
